WA1UHF Weather Reports


time (UTC)temp
F
wind
direction
speed
knots
gust
knots
rain 1hr
in
rain 24hr
in
rain mn
in
humidity
%
barometer
mb
20260504231542 61 0 0.0 0.0 0.00 0.00 0.00 57 1005.4
20260504230044 63 0 0.0 0.0 0.00 0.00 0.00 57 1005.2
20260504224544 64 0 0.0 0.0 0.00 0.00 0.00 52 1005.1
20260504223042 64 0 0.0 3.5 0.00 0.00 0.00 52 1005.0
20260504221548 65 40 0.9 3.5 0.00 0.00 0.00 51 1005.0
20260504220049 65 0 0.9 3.5 0.00 0.00 0.00 51 1005.1
20260504214547 65 288 0.0 4.3 0.00 0.00 0.00 52 1005.2
20260504213048 66 289 2.6 7.0 0.00 0.00 0.00 50 1005.2
20260504211542 66 246 1.7 8.7 0.00 0.00 0.00 49 1005.2
20260504210042 66 287 2.6 10.4 0.00 0.00 0.00 49 1005.0
20260504204540 66 279 2.6 10.4 0.00 0.00 0.00 49 1005.0
20260504203046 66 280 4.3 13.9 0.00 0.00 0.00 51 1004.8
20260504201546 65 199 4.3 9.6 0.00 0.00 0.00 53 1005.1
20260504200045 64 218 4.3 9.6 0.00 0.00 0.00 53 1004.9
20260504194545 64 252 1.7 7.8 0.00 0.00 0.00 57 1005.1
20260504193046 62 317 0.0 8.7 0.00 0.00 0.00 67 1005.2
20260504191605 60 293 0.9 7.8 0.00 0.00 0.00 68 1005.3
20260504190049 59 286 1.7 6.1 0.00 0.00 0.00 70 1005.6
20260504184548 58 0 0.9 7.0 0.00 0.00 0.00 71 1005.7
20260504183042 58 355 0.9 5.2 0.00 0.00 0.00 73 1005.7
20260504181551 57 9 1.7 7.0 0.00 0.00 0.00 72 1005.8
20260504180048 56 267 0.9 2.6 0.00 0.00 0.00 79 1005.8
20260504174546 55 0 0.0 7.0 0.00 0.00 0.00 78 1006.0
20260504173040 57 5 0.9 10.4 0.00 0.00 0.00 70 1006.3
20260504171547 60 9 0.9 7.8 0.00 0.00 0.00 60 1005.7
20260504090104 29 0 0.0 0.9 0.00 0.22 0.00 95 1007.5
20260504081547 29 0 0.0 0.0 0.00 0.23 0.00 94 1007.6
20260504044548 34 0 0.0 0.0 0.00 0.24 0.00 86 1007.2
20260504043049 35 0 0.0 0.0 0.00 0.24 0.00 85 1007.3
20260504041542 35 0 0.0 0.0 0.00 0.24 0.00 85 1007.3
20260504034550 36 0 0.0 0.0 0.00 0.24 0.24 82 1007.1
20260504033046 37 0 0.0 0.0 0.00 0.24 0.24 81 1007.1
20260504031549 38 0 0.0 0.0 0.00 0.24 0.24 79 1007.1
20260504030042 38 0 0.0 0.0 0.00 0.24 0.24 76 1006.9
20260504024550 39 0 0.0 0.0 0.00 0.27 0.24 74 1006.8
20260504023048 41 0 0.0 0.9 0.00 0.27 0.24 69 1006.8
20260504021547 42 0 0.0 1.7 0.00 0.27 0.24 66 1006.6
20260504020042 43 36 0.0 0.9 0.00 0.27 0.24 63 1006.6
20260504014545 44 322 0.9 3.5 0.00 0.28 0.24 61 1006.5
20260504013058 44 0 0.9 3.5 0.00 0.28 0.24 60 1006.4
20260504011547 45 290 1.7 6.1 0.00 0.28 0.24 59 1006.2
20260504010057 45 304 0.9 5.2 0.00 0.28 0.24 59 1006.0
20260504004550 46 310 0.9 3.5 0.00 0.28 0.24 56 1005.8
20260504003048 46 15 1.7 5.2 0.00 0.28 0.24 55 1005.6
20260504001547 46 291 2.6 8.7 0.00 0.28 0.24 56 1005.3
20260504000047 47 295 0.0 3.5 0.00 0.28 0.24 57 1005.2
20260503234542 48 307 0.9 7.8 0.00 0.29 0.24 53 1004.9
20260503233046 48 276 3.5 9.6 0.00 0.29 0.24 51 1004.8